Time,TemperatureF,DewpointF,PressureIn,WindDirection,WindDirectionDegrees,WindSpeedMPH,WindSpeedGustMPH,Humidity,HourlyPrecipIn,Conditions,Clouds,dailyrainin,SoftwareType,DateUTC
2013-06-18 00:02:00,65.0,59.0,-100.00,NW,323,2.0,3.0,80,0.00,,,0.12,,2013-06-18 04:02:00,
2013-06-18 00:12:00,65.0,59.0,-100.00,NW,323,2.0,3.0,80,0.00,,,0.12,,2013-06-18 04:12:00,
2013-06-18 00:34:00,66.0,60.0,-100.00,NNE,21,2.0,3.0,80,0.00,,,0.12,,2013-06-18 04:34:00,
2013-06-18 00:43:00,67.0,60.0,-100.00,NNE,14,1.0,1.0,80,0.00,,,0.12,,2013-06-18 04:43:00,
2013-06-18 00:54:00,67.0,61.0,-100.00,NW,322,1.0,2.0,80,0.00,,,0.12,,2013-06-18 04:54:00,
2013-06-18 01:02:00,66.0,60.0,-100.00,NE,48,1.0,2.0,80,0.00,,,0.12,,2013-06-18 05:02:00,
2013-06-18 01:12:00,66.0,60.0,-100.00,NE,48,1.0,2.0,80,0.00,,,0.12,,2013-06-18 05:12:00,
2013-06-18 01:22:00,66.0,60.0,-100.00,NE,48,1.0,2.0,80,0.00,,,0.12,,2013-06-18 05:22:00,
2013-06-18 01:34:00,67.0,60.0,-100.00,NE,48,1.0,2.0,78,0.00,,,0.02,,2013-06-18 05:34:00,
2013-06-18 01:43:00,67.0,60.0,-100.00,NE,48,1.0,2.0,78,0.00,,,0.02,,2013-06-18 05:43:00,
2013-06-18 01:53:00,67.0,60.0,-100.00,WNW,302,3.0,5.0,78,0.00,,,0.02,,2013-06-18 05:53:00,
2013-06-18 02:02:00,65.0,60.0,-100.00,North,349,4.0,8.0,83,0.00,,,0.02,,2013-06-18 06:02:00,
2013-06-18 02:11:00,65.0,60.0,-100.00,North,349,4.0,8.0,83,0.00,,,0.02,,2013-06-18 06:11:00,
2013-06-18 02:23:00,66.0,60.0,-100.00,NNW,347,4.0,5.0,80,0.00,,,0.02,,2013-06-18 06:23:00,
2013-06-18 02:32:00,66.0,59.0,-100.00,North,4,1.0,3.0,77,0.00,,,0.02,,2013-06-18 06:32:00,
2013-06-18 02:43:00,66.0,59.0,-100.00,North,4,1.0,3.0,77,0.00,,,0.02,,2013-06-18 06:43:00,
2013-06-18 02:53:00,67.0,57.0,-100.00,NW,308,0.0,1.0,71,0.00,,,0.02,,2013-06-18 06:53:00,
2013-06-18 03:02:00,69.0,60.0,-100.00,NW,326,2.0,4.0,73,0.00,,,0.02,,2013-06-18 07:02:00,
2013-06-18 03:12:00,69.0,60.0,-100.00,NW,326,2.0,4.0,73,0.00,,,0.02,,2013-06-18 07:12:00,
2013-06-18 03:22:00,69.0,60.0,-100.00,NW,326,2.0,4.0,73,0.00,,,0.02,,2013-06-18 07:22:00,
2013-06-18 03:33:00,66.0,58.0,-100.00,North,8,1.0,2.0,76,0.00,,,0.02,,2013-06-18 07:33:00,
2013-06-18 03:43:00,66.0,58.0,-100.00,North,8,1.0,2.0,76,0.00,,,0.02,,2013-06-18 07:43:00,
2013-06-18 03:53:00,67.0,60.0,-100.00,WSW,257,0.0,2.0,78,0.00,,,0.02,,2013-06-18 07:53:00,
2013-06-18 04:02:00,64.0,61.0,-100.00,WNW,284,2.0,3.0,87,0.20,,,0.04,,2013-06-18 08:02:00,
2013-06-18 04:11:00,64.0,61.0,-100.00,WNW,284,2.0,3.0,87,0.20,,,0.04,,2013-06-18 08:11:00,
2013-06-18 04:23:00,64.0,61.0,-100.00,West,271,2.0,2.0,90,0.10,,,0.06,,2013-06-18 08:23:00,
2013-06-18 04:33:00,63.0,61.0,-100.00,ESE,114,1.0,3.0,94,0.23,,,0.12,,2013-06-18 08:33:00,
2013-06-18 04:43:00,63.0,61.0,-100.00,ESE,114,1.0,3.0,94,0.23,,,0.12,,2013-06-18 08:43:00,
2013-06-18 04:52:00,62.0,61.0,-100.00,NNW,344,3.0,4.0,97,0.17,,,0.16,,2013-06-18 08:52:00,
2013-06-18 05:02:00,64.0,63.0,-100.00,NE,35,1.0,3.0,97,0.00,,,0.17,,2013-06-18 09:02:00,
2013-06-18 05:12:00,64.0,63.0,-100.00,NE,35,1.0,3.0,97,0.00,,,0.17,,2013-06-18 09:12:00,
2013-06-18 05:22:00,64.0,63.0,-100.00,NE,35,1.0,3.0,97,0.00,,,0.17,,2013-06-18 09:22:00,
2013-06-18 05:34:00,64.0,63.0,-100.00,WSW,246,1.0,2.0,97,0.00,,,0.17,,2013-06-18 09:34:00,
2013-06-18 05:43:00,64.0,63.0,-100.00,WSW,246,1.0,2.0,97,0.00,,,0.17,,2013-06-18 09:43:00,
2013-06-18 05:53:00,64.0,63.0,-100.00,NW,319,0.0,1.0,96,0.00,,,0.17,,2013-06-18 09:53:00,
2013-06-18 06:02:00,64.0,63.0,-100.00,NW,319,0.0,1.0,96,0.00,,,0.17,,2013-06-18 10:02:00,
2013-06-18 06:11:00,64.0,63.0,-100.00,NW,320,1.0,2.0,96,0.01,,,0.18,,2013-06-18 10:11:00,
2013-06-18 06:22:00,64.0,63.0,-100.00,NNW,347,1.0,2.0,96,0.01,,,0.18,,2013-06-18 10:22:00,
2013-06-18 06:33:00,64.0,63.0,-100.00,NNW,340,1.0,2.0,96,0.07,,,0.18,,2013-06-18 10:33:00,
2013-06-18 06:43:00,64.0,63.0,-100.00,NNW,340,1.0,2.0,96,0.07,,,0.18,,2013-06-18 10:43:00,
2013-06-18 06:53:00,65.0,63.0,-100.00,East,99,0.0,0.0,96,0.30,,,0.23,,2013-06-18 10:53:00,
2013-06-18 07:02:00,65.0,63.0,-100.00,East,99,0.0,0.0,96,0.30,,,0.23,,2013-06-18 11:02:00,
2013-06-18 07:11:00,63.0,62.0,-100.00,West,275,3.0,4.0,96,0.35,,,0.30,,2013-06-18 11:11:00,
2013-06-18 07:22:00,64.0,63.0,-100.00,WSW,257,4.0,5.0,97,0.27,,,0.38,,2013-06-18 11:22:00,
2013-06-18 07:32:00,64.0,63.0,-100.00,WSW,254,9.0,12.0,98,0.34,,,0.46,,2013-06-18 11:32:00,
2013-06-18 07:43:00,64.0,63.0,-100.00,WSW,254,9.0,12.0,98,0.34,,,0.46,,2013-06-18 11:43:00,
2013-06-18 07:52:00,63.0,62.0,-100.00,SW,230,2.0,3.0,98,0.17,,,0.53,,2013-06-18 11:52:00,
2013-06-18 08:01:00,63.0,62.0,-100.00,SW,230,2.0,3.0,98,0.17,,,0.53,,2013-06-18 12:01:00,
2013-06-18 08:11:00,64.0,63.0,-100.00,West,261,4.0,6.0,98,0.23,,,0.57,,2013-06-18 12:11:00,
2013-06-18 08:22:00,64.0,63.0,-100.00,West,261,4.0,6.0,98,0.23,,,0.57,,2013-06-18 12:22:00,
2013-06-18 08:33:00,64.0,63.0,-100.00,WSW,258,4.0,6.0,98,0.37,,,0.63,,2013-06-18 12:33:00,
2013-06-18 08:43:00,64.0,63.0,-100.00,SW,216,0.0,2.0,98,0.10,,,0.65,,2013-06-18 12:43:00,
2013-06-18 08:52:00,64.0,63.0,-100.00,WSW,241,1.0,2.0,98,0.37,,,0.69,,2013-06-18 12:52:00,
2013-06-18 09:02:00,64.0,63.0,-100.00,WSW,241,1.0,2.0,98,0.37,,,0.69,,2013-06-18 13:02:00,
2013-06-18 09:12:00,64.0,63.0,-100.00,SW,219,1.0,2.0,98,0.21,,,0.77,,2013-06-18 13:12:00,
2013-06-18 09:22:00,64.0,63.0,-100.00,WSW,256,2.0,4.0,98,0.14,,,0.82,,2013-06-18 13:22:00,
2013-06-18 09:33:00,64.0,63.0,-100.00,WSW,256,2.0,4.0,98,0.14,,,0.82,,2013-06-18 13:33:00,
2013-06-18 09:43:00,64.0,63.0,-100.00,SW,232,1.0,2.0,98,0.11,,,0.86,,2013-06-18 13:43:00,
2013-06-18 09:53:00,64.0,63.0,-100.00,NNW,336,0.0,1.0,98,0.30,,,0.90,,2013-06-18 13:53:00,
2013-06-18 10:02:00,64.0,63.0,-100.00,ENE,75,1.0,2.0,98,0.06,,,0.94,,2013-06-18 14:02:00,
2013-06-18 10:11:00,64.0,63.0,-100.00,ENE,75,1.0,2.0,98,0.06,,,0.94,,2013-06-18 14:11:00,
2013-06-18 10:22:00,64.0,64.0,-100.00,NNE,20,1.0,2.0,98,0.09,,,0.98,,2013-06-18 14:22:00,
2013-06-18 10:33:00,63.0,63.0,-100.00,NNW,343,1.0,3.0,98,0.03,,,1.00,,2013-06-18 14:33:00,
2013-06-18 10:43:00,63.0,63.0,-100.00,NNW,343,1.0,3.0,98,0.03,,,1.00,,2013-06-18 14:43:00,
2013-06-18 10:53:00,63.0,62.0,-100.00,NNW,344,2.0,4.0,98,0.01,,,1.01,,2013-06-18 14:53:00,
2013-06-18 11:02:00,63.0,62.0,-100.00,North,354,2.0,3.0,98,0.40,,,1.07,,2013-06-18 15:02:00,
2013-06-18 11:11:00,63.0,62.0,-100.00,North,354,2.0,3.0,98,0.40,,,1.07,,2013-06-18 15:11:00,
2013-06-18 11:22:00,62.0,61.0,-100.00,NE,44,6.0,11.0,98,0.28,,,1.15,,2013-06-18 15:22:00,
2013-06-18 11:33:00,62.0,61.0,-100.00,NE,48,7.0,11.0,97,0.04,,,1.20,,2013-06-18 15:33:00,
2013-06-18 11:43:00,62.0,61.0,-100.00,NE,48,7.0,11.0,97,0.04,,,1.20,,2013-06-18 15:43:00,
2013-06-18 11:53:00,62.0,61.0,-100.00,ENE,72,6.0,9.0,97,0.03,,,1.24,,2013-06-18 15:53:00,
2013-06-18 12:01:00,62.0,61.0,-100.00,ENE,64,4.0,7.0,97,0.10,,,1.27,,2013-06-18 16:01:00,
2013-06-18 12:11:00,62.0,61.0,-100.00,ENE,64,4.0,7.0,97,0.10,,,1.27,,2013-06-18 16:11:00,
2013-06-18 12:23:00,62.0,61.0,-100.00,ENE,64,4.0,7.0,97,0.10,,,1.27,,2013-06-18 16:23:00,
2013-06-18 12:33:00,61.0,60.0,-100.00,ENE,64,3.0,6.0,97,0.21,,,1.44,,2013-06-18 16:33:00,
2013-06-18 12:43:00,61.0,60.0,-100.00,ENE,64,3.0,6.0,97,0.21,,,1.44,,2013-06-18 16:43:00,
2013-06-18 12:53:00,61.0,60.0,-100.00,East,83,5.0,11.0,97,0.06,,,1.46,,2013-06-18 16:53:00,
2013-06-18 13:02:00,62.0,61.0,-100.00,SE,124,3.0,7.0,97,0.16,,,1.50,,2013-06-18 17:02:00,
2013-06-18 13:12:00,62.0,61.0,-100.00,SE,124,3.0,7.0,97,0.16,,,1.50,,2013-06-18 17:12:00,
2013-06-18 13:22:00,62.0,61.0,-100.00,ESE,119,3.0,6.0,98,0.00,,,1.52,,2013-06-18 17:22:00,
2013-06-18 13:33:00,61.0,60.0,-100.00,ESE,112,4.0,7.0,98,0.01,,,1.52,,2013-06-18 17:33:00,
2013-06-18 13:43:00,61.0,60.0,-100.00,ESE,112,4.0,7.0,98,0.01,,,1.52,,2013-06-18 17:43:00,
2013-06-18 13:53:00,61.0,61.0,-100.00,ESE,103,3.0,5.0,98,0.01,,,1.52,,2013-06-18 17:53:00,
2013-06-18 14:02:00,61.0,61.0,-100.00,ESE,110,5.0,10.0,98,0.00,,,1.53,,2013-06-18 18:02:00,
2013-06-18 14:12:00,61.0,61.0,-100.00,ESE,110,5.0,10.0,98,0.00,,,1.53,,2013-06-18 18:12:00,
2013-06-18 14:22:00,61.0,61.0,-100.00,ESE,110,5.0,10.0,98,0.00,,,1.53,,2013-06-18 18:22:00,
2013-06-18 14:33:00,61.0,61.0,-100.00,ESE,109,5.0,10.0,98,0.00,,,1.53,,2013-06-18 18:33:00,
2013-06-18 14:42:00,62.0,61.0,-100.00,ESE,114,4.0,9.0,98,0.00,,,1.53,,2013-06-18 18:42:00,
2013-06-18 14:53:00,62.0,61.0,-100.00,ESE,114,4.0,9.0,98,0.00,,,1.53,,2013-06-18 18:53:00,
2013-06-18 15:02:00,62.0,62.0,-100.00,ESE,117,4.0,9.0,98,0.00,,,1.53,,2013-06-18 19:02:00,
2013-06-18 15:12:00,63.0,62.0,-100.00,East,92,3.0,7.0,97,0.00,,,1.53,,2013-06-18 19:12:00,
2013-06-18 15:22:00,63.0,62.0,-100.00,East,92,3.0,7.0,97,0.00,,,1.53,,2013-06-18 19:22:00,
2013-06-18 15:33:00,63.0,61.0,-100.00,ESE,104,4.0,8.0,95,0.00,,,1.53,,2013-06-18 19:33:00,
2013-06-18 15:43:00,63.0,61.0,-100.00,ESE,104,4.0,8.0,95,0.00,,,1.53,,2013-06-18 19:43:00,
2013-06-18 15:53:00,63.0,62.0,-100.00,ESE,104,1.0,2.0,95,0.00,,,1.53,,2013-06-18 19:53:00,
2013-06-18 16:02:00,64.0,62.0,-100.00,NE,55,2.0,4.0,94,0.00,,,1.53,,2013-06-18 20:02:00,
2013-06-18 16:12:00,64.0,62.0,-100.00,NE,55,2.0,4.0,94,0.00,,,1.53,,2013-06-18 20:12:00,
2013-06-18 16:23:00,65.0,63.0,-100.00,ESE,119,2.0,5.0,92,0.00,,,1.53,,2013-06-18 20:23:00,
2013-06-18 16:33:00,65.0,62.0,-100.00,ESE,120,3.0,6.0,90,0.00,,,1.53,,2013-06-18 20:33:00,
2013-06-18 16:43:00,65.0,62.0,-100.00,ESE,120,3.0,6.0,90,0.00,,,1.53,,2013-06-18 20:43:00,
2013-06-18 16:52:00,64.0,62.0,-100.00,SE,137,3.0,4.0,92,0.00,,,1.53,,2013-06-18 20:52:00,
2013-06-18 17:02:00,65.0,62.0,-100.00,SE,131,2.0,4.0,90,0.00,,,1.53,,2013-06-18 21:02:00,
2013-06-18 17:12:00,65.0,62.0,-100.00,SE,131,2.0,4.0,90,0.00,,,1.53,,2013-06-18 21:12:00,
2013-06-18 17:23:00,65.0,62.0,-100.00,SE,131,2.0,4.0,90,0.00,,,1.53,,2013-06-18 21:23:00,
2013-06-18 17:33:00,67.0,63.0,-100.00,WSW,251,0.0,2.0,89,0.00,,,1.53,,2013-06-18 21:33:00,
2013-06-18 17:43:00,67.0,63.0,-100.00,WSW,251,0.0,2.0,89,0.00,,,1.53,,2013-06-18 21:43:00,
2013-06-18 17:52:00,67.0,63.0,-100.00,ESE,104,2.0,4.0,85,0.00,,,1.53,,2013-06-18 21:52:00,
2013-06-18 18:02:00,67.0,63.0,-100.00,ESE,104,2.0,4.0,85,0.00,,,1.53,,2013-06-18 22:02:00,
2013-06-18 18:11:00,67.0,63.0,-100.00,SSE,151,2.0,3.0,87,0.00,,,1.53,,2013-06-18 22:11:00,
2013-06-18 18:22:00,67.0,62.0,-100.00,ESE,114,2.0,5.0,84,0.00,,,1.53,,2013-06-18 22:22:00,
2013-06-18 18:34:00,68.0,62.0,-100.00,East,99,2.0,4.0,81,0.00,,,1.53,,2013-06-18 22:34:00,
2013-06-18 18:43:00,68.0,62.0,-100.00,East,99,2.0,4.0,81,0.00,,,1.53,,2013-06-18 22:43:00,
2013-06-18 18:53:00,68.0,61.0,-100.00,East,100,3.0,6.0,80,0.00,,,1.53,,2013-06-18 22:53:00,
2013-06-18 19:02:00,68.0,61.0,-100.00,East,100,3.0,6.0,80,0.00,,,1.53,,2013-06-18 23:02:00,
2013-06-18 19:12:00,68.0,62.0,-100.00,ESE,106,3.0,5.0,80,0.00,,,1.53,,2013-06-18 23:12:00,
2013-06-18 19:23:00,68.0,61.0,-100.00,ESE,104,2.0,4.0,79,0.00,,,1.53,,2013-06-18 23:23:00,
2013-06-18 19:37:00,67.0,61.0,-100.00,ENE,69,3.0,5.0,79,0.00,,,1.53,,2013-06-18 23:37:00,
2013-06-18 19:47:00,67.0,61.0,-100.00,ENE,69,3.0,5.0,79,0.00,,,1.53,,2013-06-18 23:47:00,
2013-06-18 19:53:00,67.0,61.0,-100.00,NE,52,2.0,3.0,80,0.00,,,1.53,,2013-06-18 23:53:00,
2013-06-18 20:02:00,67.0,61.0,-100.00,ENE,69,3.0,5.0,82,0.00,,,1.53,,2013-06-19 00:02:00,
2013-06-18 20:12:00,67.0,61.0,-100.00,ENE,69,3.0,5.0,82,0.00,,,1.53,,2013-06-19 00:12:00,
2013-06-18 20:22:00,66.0,62.0,-100.00,NE,54,4.0,4.0,85,0.00,,,1.53,,2013-06-19 00:22:00,
2013-06-18 20:33:00,66.0,61.0,-100.00,ENE,75,3.0,5.0,84,0.00,,,1.53,,2013-06-19 00:33:00,
2013-06-18 20:43:00,66.0,61.0,-100.00,ENE,75,3.0,5.0,84,0.00,,,1.53,,2013-06-19 00:43:00,
2013-06-18 20:53:00,65.0,62.0,-100.00,North,7,4.0,5.0,89,0.00,,,1.53,,2013-06-19 00:53:00,
2013-06-18 21:01:00,65.0,61.0,-100.00,NE,38,3.0,3.0,88,0.00,,,1.53,,2013-06-19 01:01:00,
2013-06-18 21:11:00,65.0,61.0,-100.00,NE,38,3.0,3.0,88,0.00,,,1.53,,2013-06-19 01:11:00,
2013-06-18 21:22:00,64.0,61.0,-100.00,North,8,3.0,5.0,90,0.00,,,1.53,,2013-06-19 01:22:00,
2013-06-18 21:32:00,63.0,61.0,-100.00,NNW,339,2.0,3.0,91,0.00,,,1.53,,2013-06-19 01:32:00,
2013-06-18 21:43:00,63.0,61.0,-100.00,NNW,339,2.0,3.0,91,0.00,,,1.53,,2013-06-19 01:43:00,
2013-06-18 21:53:00,64.0,60.0,-100.00,NNE,21,3.0,4.0,89,0.00,,,1.53,,2013-06-19 01:53:00,
2013-06-18 22:01:00,63.0,60.0,-100.00,NNE,20,3.0,4.0,91,0.00,,,1.53,,2013-06-19 02:01:00,
2013-06-18 22:11:00,63.0,60.0,-100.00,NNE,20,3.0,4.0,91,0.00,,,1.53,,2013-06-19 02:11:00,
2013-06-18 22:21:00,63.0,60.0,-100.00,NE,51,4.0,6.0,91,0.00,,,1.53,,2013-06-19 02:21:00,
2013-06-18 22:32:00,63.0,60.0,-100.00,ENE,64,4.0,7.0,88,0.00,,,1.53,,2013-06-19 02:32:00,
2013-06-18 22:42:00,63.0,60.0,-100.00,ENE,64,4.0,7.0,88,0.00,,,1.53,,2013-06-19 02:42:00,
2013-06-18 22:52:00,64.0,60.0,-100.00,NE,45,4.0,5.0,88,0.00,,,1.53,,2013-06-19 02:52:00,
2013-06-18 23:01:00,64.0,60.0,-100.00,NE,45,4.0,5.0,88,0.00,,,1.53,,2013-06-19 03:01:00,
2013-06-18 23:11:00,64.0,60.0,-100.00,NE,52,4.0,6.0,88,0.00,,,1.53,,2013-06-19 03:11:00,
2013-06-18 23:22:00,64.0,60.0,-100.00,ENE,65,5.0,6.0,87,0.00,,,1.53,,2013-06-19 03:22:00,
2013-06-18 23:33:00,64.0,60.0,-100.00,ENE,62,4.0,6.0,86,0.00,,,1.53,,2013-06-19 03:33:00,
2013-06-18 23:42:00,64.0,60.0,-100.00,ENE,62,4.0,6.0,86,0.00,,,1.53,,2013-06-19 03:42:00,
2013-06-18 23:52:00,63.0,60.0,-100.00,NE,54,3.0,5.0,89,0.00,,,1.53,,2013-06-19 03:52:00,